TimeCST,TemperatureF,Dew PointF,Humidity,Sea Level PressureIn,VisibilityMPH,Wind Direction,Wind SpeedMPH,Gust SpeedMPH,PrecipitationIn,Events,Conditions,WindDirDegrees,DateUTC
12:53 AM,25.0,21.0,85,30.23,6.0,SW,4.6,-,N/A,,Overcast,220,2013-12-27 06:53:00
1:53 AM,21.0,17.1,85,30.24,3.0,Calm,Calm,-,N/A,,Clear,0,2013-12-27 07:53:00
2:01 AM,19.0,16.0,88,30.20,2.0,Calm,Calm,-,N/A,,Clear,0,2013-12-27 08:01:00
2:25 AM,17.1,12.9,84,30.20,3.0,Calm,Calm,-,N/A,,Clear,0,2013-12-27 08:25:00
2:31 AM,16.0,12.9,88,30.20,1.8,Calm,Calm,-,N/A,,Clear,0,2013-12-27 08:31:00
2:35 AM,17.1,12.9,84,30.20,0.8,Calm,Calm,-,N/A,,Clear,0,2013-12-27 08:35:00
2:42 AM,15.1,12.0,88,30.20,0.2,Calm,Calm,-,N/A,Fog,Light Freezing Fog,0,2013-12-27 08:42:00
2:53 AM,15.1,12.0,88,30.24,0.8,Calm,Calm,-,N/A,,Mist,0,2013-12-27 08:53:00
2:56 AM,15.1,12.0,88,30.20,1.2,Calm,Calm,-,N/A,,Mostly Cloudy,0,2013-12-27 08:56:00
3:06 AM,15.1,12.0,88,30.20,0.8,Calm,Calm,-,N/A,,Mist,0,2013-12-27 09:06:00
3:23 AM,10.9,9.0,92,30.20,0.2,Calm,Calm,-,N/A,Fog,Light Freezing Fog,0,2013-12-27 09:23:00
3:41 AM,12.9,10.0,88,30.20,1.2,Calm,Calm,-,N/A,,Mist,0,2013-12-27 09:41:00
3:43 AM,12.9,10.0,88,30.20,3.0,Calm,Calm,-,N/A,,Mist,0,2013-12-27 09:43:00
3:48 AM,12.2,8.6,85,30.21,2.5,Calm,Calm,-,N/A,,Scattered Clouds,0,2013-12-27 09:48:00
3:51 AM,12.2,10.4,92,30.21,0.8,Calm,Calm,-,N/A,,Mist,0,2013-12-27 09:51:00
3:53 AM,12.9,10.0,88,30.25,0.5,Calm,Calm,-,N/A,Fog,Light Freezing Fog,0,2013-12-27 09:53:00
4:09 AM,10.9,7.0,84,30.20,2.0,Calm,Calm,-,N/A,,Partly Cloudy,0,2013-12-27 10:09:00
4:16 AM,10.9,7.0,84,30.20,6.0,Calm,Calm,-,N/A,,Partly Cloudy,0,2013-12-27 10:16:00
4:53 AM,10.0,5.0,80,30.25,6.0,Calm,Calm,-,N/A,,Haze,0,2013-12-27 10:53:00
5:02 AM,9.0,5.0,84,30.21,4.0,Calm,Calm,-,N/A,,Partly Cloudy,0,2013-12-27 11:02:00
5:11 AM,10.9,7.0,84,30.22,2.5,Calm,Calm,-,N/A,,Mostly Cloudy,0,2013-12-27 11:11:00
5:21 AM,9.0,5.0,84,30.21,5.0,Calm,Calm,-,N/A,,Mostly Cloudy,0,2013-12-27 11:21:00
5:53 AM,8.1,3.0,80,30.26,6.0,Calm,Calm,-,N/A,,Haze,0,2013-12-27 11:53:00
6:53 AM,10.9,6.1,81,30.27,1.2,Calm,Calm,-,N/A,,Haze,0,2013-12-27 12:53:00
6:55 AM,10.9,6.1,81,30.23,0.8,Calm,Calm,-,N/A,,Haze,0,2013-12-27 12:55:00
7:53 AM,12.0,9.0,88,30.27,0.2,Calm,Calm,-,N/A,Fog,Light Freezing Fog,0,2013-12-27 13:53:00
8:53 AM,12.9,10.0,88,30.27,0.2,Calm,Calm,-,N/A,Fog,Light Freezing Fog,0,2013-12-27 14:53:00
9:19 AM,15.1,15.1,100,30.23,0.8,Calm,Calm,-,N/A,,Scattered Clouds,0,2013-12-27 15:19:00
9:21 AM,16.0,15.1,96,30.23,1.2,Calm,Calm,-,N/A,,Scattered Clouds,0,2013-12-27 15:21:00
9:33 AM,16.0,14.0,92,30.22,2.5,Calm,Calm,-,N/A,,Clear,0,2013-12-27 15:33:00
9:42 AM,16.0,15.1,96,30.21,3.0,Calm,Calm,-,N/A,,Clear,0,2013-12-27 15:42:00
9:53 AM,17.1,17.1,100,30.25,4.0,Calm,Calm,-,N/A,,Clear,0,2013-12-27 15:53:00
10:53 AM,21.0,16.0,81,30.23,5.0,SSW,3.5,-,N/A,,Haze,200,2013-12-27 16:53:00
11:53 AM,26.1,19.9,78,30.19,8.0,SSW,3.5,-,N/A,,Clear,210,2013-12-27 17:53:00
12:53 PM,33.1,24.1,70,29.53,10.0,SSW,11.5,-,0.00,Rain,Light Rain,210,2013-12-27 18:53:00
1:53 PM,34.0,24.1,67,30.10,10.0,SW,6.9,-,0.00,,Clear,220,2013-12-27 19:53:00
2:53 PM,36.0,25.0,64,30.07,10.0,SSW,8.1,-,N/A,,Mostly Cloudy,200,2013-12-27 20:53:00
3:53 PM,37.0,26.1,65,30.05,10.0,SSW,9.2,-,N/A,,Overcast,200,2013-12-27 21:53:00
4:53 PM,36.0,26.1,67,30.05,10.0,SSW,9.2,-,N/A,,Scattered Clouds,200,2013-12-27 22:53:00
5:53 PM,36.0,26.1,67,30.05,10.0,SSW,8.1,-,N/A,,Clear,210,2013-12-27 23:53:00
6:53 PM,36.0,26.1,67,30.05,10.0,SSW,8.1,-,N/A,,Clear,210,2013-12-28 00:53:00
7:53 PM,35.1,27.0,72,30.05,10.0,SSW,9.2,-,N/A,,Clear,210,2013-12-28 01:53:00
8:53 PM,37.9,28.0,68,30.06,10.0,SSW,6.9,-,N/A,,Clear,210,2013-12-28 02:53:00
9:53 PM,36.0,27.0,70,30.07,10.0,SSW,8.1,-,N/A,,Clear,210,2013-12-28 03:53:00
10:53 PM,34.0,27.0,75,30.07,10.0,SSW,6.9,-,N/A,,Clear,210,2013-12-28 04:53:00
11:53 PM,33.1,27.0,78,30.07,10.0,SSW,6.9,-,N/A,,Clear,210,2013-12-28 05:53:00